Change the Weather History Date:

Sunday, March 4, 2012

  Actual Average Record
Temperature  
Mean Temperature 35 °F 32 °F  
Max Temperature 47 °F 46 °F 72 °F (2009)
Min Temperature 23 °F 18 °F -10 °F (2015)
Degree Days  
Heating Degree Days 30 33  
Month to date heating degree days 135 134  
Since 1 July heating degree days 5199 5484  
Cooling Degree Days 0 0  
Month to date cooling degree days 0 0  
Year to date cooling degree days 0 0  
Moisture  
Dew Point 26 °F    
Average Humidity 65    
Maximum Humidity 88    
Minimum Humidity 42    
Precipitation  
Precipitation T in 0.02 in 0.30 in (2008)
Month to date precipitation T 0.07  
Year to date precipitation 1.37 0.86  
Sea Level Pressure  
Sea Level Pressure 30.04 in    
Wind  
Wind Speed 9 mph (NW)    
Max Wind Speed 22 mph    
Max Gust Speed 28 mph    
Visibility 10 miles    
Events Rain    
T = Trace of Precipitation, MM = Missing Value Source: NWS Daily Summary

Daily Weather History Graph

Daily Weather History Graph

Search for Another Location

Airport or City:

Trip Planner

Search our weather history database for the weather conditions in past years. The results will help you decide how hot, cold, wet, or windy it might be!

Date:

Astronomy

Mar. 04, 2012 Rise Set
Actual Time 6:20 AM MST 5:43 PM MST
Civil Twilight 5:51 AM MST 6:12 PM MST
Nautical Twilight 5:18 AM MST 6:45 PM MST
Astronomical Twilight 4:46 AM MST 7:18 PM MST
Moon 1:53 PM MST (3/4) 3:47 AM MST (3/4)
Length of Visible Light 12h 20m
Length of Day
11h 23m
Waxing Gibbous, 84% of the Moon is Illuminated
Mar 4
Waxing Gibbous
Mar 8
Full
Mar 14
Last Quarter
Mar 22
New
Mar 30
First Quarter

Hourly Weather History & Observations

Time (MST) Temp. Windchill Dew Point Humidity Pressure Visibility Wind Dir Wind Speed Gust Speed Precip Events Conditions
12:52 AM 42.1 °F 35.7 °F 24.1 °F 49% 29.83 in 10.0 mi West 11.5 mph - N/A   Overcast
1:52 AM 43.0 °F 36.8 °F 25.0 °F 49% 29.84 in 10.0 mi West 11.5 mph - N/A   Overcast
2:52 AM 43.0 °F 36.0 °F 26.1 °F 51% 29.85 in 10.0 mi West 13.8 mph - N/A   Overcast
3:52 AM 45.0 °F 38.2 °F 27.0 °F 49% 29.86 in 10.0 mi WNW 15.0 mph 23.0 mph N/A   Overcast
4:52 AM 43.0 °F 36.0 °F 27.0 °F 53% 29.90 in 10.0 mi WNW 13.8 mph - N/A   Overcast
5:52 AM 44.1 °F 38.6 °F 28.0 °F 53% 29.93 in 10.0 mi WNW 10.4 mph - N/A   Overcast
6:52 AM 39.0 °F 35.7 °F 27.0 °F 62% 29.96 in 10.0 mi WSW 4.6 mph - N/A   Mostly Cloudy
7:52 AM 43.0 °F 40.3 °F 27.0 °F 53% 29.98 in 10.0 mi West 4.6 mph - N/A   Overcast
8:52 AM 44.1 °F 37.7 °F 28.9 °F 55% 30.03 in 10.0 mi North 12.7 mph 20.7 mph N/A   Overcast
9:52 AM 39.0 °F 30.3 °F 32.0 °F 76% 30.09 in 10.0 mi NNE 16.1 mph 25.3 mph N/A   Overcast
10:52 AM 37.9 °F 30.9 °F 30.9 °F 76% 30.12 in 10.0 mi North 10.4 mph - 0.00 in Rain Light Rain
11:12 AM 39.2 °F 32.5 °F 30.2 °F 70% 30.09 in 10.0 mi North 10.4 mph 18.4 mph 0.00 in   Overcast
11:52 AM 43.0 °F 36.4 °F 28.9 °F 58% 30.12 in 10.0 mi North 12.7 mph 20.7 mph 0.00 in   Mostly Cloudy
12:52 PM 42.1 °F 35.7 °F 27.0 °F 55% 30.11 in 10.0 mi North 11.5 mph - N/A   Overcast
1:52 PM 46.0 °F 41.4 °F 26.1 °F 46% 30.10 in 10.0 mi North 9.2 mph - N/A   Overcast
2:52 PM 46.9 °F - 26.1 °F 44% 30.10 in 10.0 mi NW 8.1 mph - N/A   Scattered Clouds
3:52 PM 46.0 °F 43.1 °F 25.0 °F 44% 30.10 in 10.0 mi NNW 5.8 mph - N/A   Clear
4:52 PM 45.0 °F 43.5 °F 25.0 °F 46% 30.11 in 10.0 mi NNW 3.5 mph - N/A   Clear
5:52 PM 36.0 °F 31.1 °F 24.1 °F 62% 30.13 in 10.0 mi ENE 5.8 mph - N/A   Clear
6:52 PM 30.0 °F 24.1 °F 23.0 °F 75% 30.16 in 10.0 mi East 5.8 mph - N/A   Clear
7:52 PM 28.9 °F 23.9 °F 23.0 °F 78% 30.14 in 10.0 mi ENE 4.6 mph - N/A   Clear
8:52 PM 27.0 °F 21.6 °F 23.0 °F 85% 30.13 in 10.0 mi ENE 4.6 mph - N/A   Clear
9:52 PM 25.0 °F - 21.9 °F 88% 30.14 in 10.0 mi Calm Calm - N/A   Clear
10:52 PM 32.0 °F 27.5 °F 25.0 °F 75% 30.10 in 10.0 mi SSW 4.6 mph - N/A   Clear
11:52 PM 33.1 °F 26.9 °F 27.0 °F 78% 30.06 in 10.0 mi SSW 6.9 mph - N/A   Clear